Volver al catálogo

STARLINK-38064

ActivoComunicacionesSSO
NORAD 69988·PAYLOAD·🇺🇸 United States

Lanzado Jul 11, 2026 desde Vandenberg Space Force Base

Loading…

Próximos Pases (próximas 24 horas)

TLE

ActualizadoSource: CelesTrak SupGP

Época: Sep 15, 2026, 04:09 UTC

1 69988C 26159P   26258.17340278 -.02722700  00000+0 -41392-1 0  2587
2 69988  97.2851  99.9462 0001706  94.1078 239.2682 15.55970731    12

Sigue STARLINK-38064 en tiempo real con AllMySat

Download on the App Store